Dr. Bill's Marine Weather

Coastal Marine Forecast

       Alabama   Florida   Louisiana   Mississippi

Printer Friendly AL  FL  LA  MS

Data Buoys:   Western Gulf of Mexico    Eastern Gulf of Mexico
**********************************************************************
  Alabama
500 PM CDT SUN APR 19 2015

ALZ051>064-192300-
SOUTHWEST ALABAMA
  
CITY           SKY/WX    TMP DP  RH WIND       PRES   REMARKS
MOBILE         MOSUNNY   80  67  64 SW15      29.77R                  
BROOKLEY FIELD MOSUNNY   80  69  69 VRB7G18   29.78R                  
EVERGREEN      SUNNY     81  65  58 SW7       29.75F                  
**********************************************************************
  Florida
600 PM EDT SUN APR 19 2015

FLZ001>010-012>015-112-114-115-192300-
PANHANDLE FLORIDA
  
CITY           SKY/WX    TMP DP  RH WIND       PRES   REMARKS
PENSACOLA      PTSUNNY   77  68  73 SW17      29.79R                  
PENSACOLA NAS  PTSUNNY   78  71  79 SW14      29.79S                  
MILTON NAS     MOSUNNY   78  69  73 SW14      29.78                   
CRESTVIEW      PTSUNNY   78  69  73 S12       29.80R                  
DUKE FIELD     FAIR      77  69  74 S16G25    29.79R                  
VALPARAISO     PTSUNNY   75  69  82 SW16G23   29.81R                  
MARY ESTHER    PTSUNNY   76  65  70 S14G20    29.80R                  
TRI COUNTY     MOCLDY    75  64  68 SW8G18    29.82R                  
PANAMA CITY    CLOUDY    75  64  68 S13       29.82R                  
TYNDALL AFB    PTSUNNY   76  65  67 S7        29.83R                  
APALACHICOLA   CLOUDY    77  64  64 S8        29.85R                  

STATION/POSITION SKY/WX   TEMP    WIND        PRES    WAVE   SWELL
                          AIR SEA DIR/SP/G            HT/PER HT/PER
                          (F)     (DEG/KT/KT) (MB)    (FT/S) (FT/S)
30.1N   87.6W              74 74  210/ 10/ 12 1008.4R   5/ 8   3/ 8
29.2N   88.2W              75 75  260/ 12/ 12 1009.3F   6/ 8   5/ 8
28.8N   86.0W              74 76  160/ 12/ 14 1010.9F   4/ 6   3/ 6
PANAMA CITY BEAC           74 75  170/ 11/ 12 1009.6F
CAPE SAN BLAS    NOT AVBL
TOWER C                    71     160/  9/ 10 1011.2R
28.5N   84.5W              73 76  220/  6/  8 1012.1F   4/ 5   3/ 5

**********************************************************************
  Louisiana
500 PM CDT SUN APR 19 2015

LAZ040-048-061>063-065-066-069-192300-
SOUTHEAST LOUISIANA
  
CITY           SKY/WX    TMP DP  RH WIND       PRES   REMARKS
N.O. AUDUBON     N/A     88  65  46 MISG        N/A                   
N.O. INTL ARPT MOSUNNY   84  61  45 SW15      29.77S                  
N.O. LAKEFRONT SUNNY     85  64  49 NW6       29.78S                  
SLIDELL        SUNNY     83  59  44 SW8       29.76S                  
BATON ROUGE    SUNNY     84  62  47 W13       29.75F                  
BOOTHVILLE     MOSUNNY   80  67  64 SW13      29.80S                  
BELLE CHASSE   MOSUNNY   83  61  47 SW12      29.77S                  
BOGALUSA*        N/A     86  55  34 W10G17    29.77S                  
GALLIANO*      CLEAR     82  68  63 MISG      29.80S                  
NEW ROADS*     FAIR      82  63  51 SW8       29.75S                  
GONZALES*      FAIR      82  62  51 SW6       29.76S                  
HAMMOND*       SUNNY     86  57  37 SW6       29.77S                  
HOUMA*         SUNNY     82  64  54 SW10      29.79S                  
PORT FOURCHON* CLEAR     79  64  61 W10       29.83F                  

**********************************************************************
  Mississippi
500 PM CDT SUN APR 19 2015

MSZ080>082-192300-
COASTAL MISSISSIPPI
  
CITY           SKY/WX    TMP DP  RH WIND       PRES   REMARKS
BAY ST LOUIS   SUNNY     82  55  39 MISG      29.76S                  
BILOXI         SUNNY     82  65  56 SW13      29.76S                  
PASCAGOULA     SUNNY     79  70  74 SW9       29.77S                  
GULFPORT       SUNNY     83  60  45 SW10G17   29.75S                  
About Us | Coastal Marine Forecast | Offshore Marine Forecast
Gulf Coast Tides | Hourly Weather Observations | Weather Radar
Sea Surface Temperatures | Solar/Lunar Data | Hurricane Advisories | Home
     
USA Logo Dr. Bill's Marine Weather
Last date changed: December 9, 2014 4:08 PM
www.gulfmarineweather.com/hourlyweatherobservations.shtml
Contact Us